owner,sensor,date,latitude,longitude,vertical_datum,direction_of_sea_water_velocity,sea_water_speed,upward_sea_water_velocity,qcFlag 
TABS,ioos:station:wmo:42051:1,2000-04-01T00:00:00Z,29.6350,-93.6417,2.0,253.0819488,26.63255339,-99999.0,'11111222,11111222,99999999' 
TABS,ioos:station:wmo:42051:1,2000-04-01T00:30:00Z,29.6350,-93.6417,2.0,249.2014725,28.52903433,-99999.0,'11111222,11111222,99999999' 
TABS,ioos:station:wmo:42051:1,2000-04-01T01:00:00Z,29.6350,-93.6417,2.0,250.7415763,26.19584891,-99999.0,'11111222,11111222,99999999' 
TABS,ioos:station:wmo:42051:1,2000-04-01T01:30:00Z,29.6350,-93.6417,2.0,251.6920322,22.76213083,-99999.0,'11111222,11111222,99999999' 
TABS,ioos:station:wmo:42051:1,2000-04-01T02:00:00Z,29.6350,-93.6417,2.0,248.5766067,20.80761639,-99999.0,'11111222,11111222,99999999' 
TABS,ioos:station:wmo:42051:1,2000-04-01T02:30:00Z,29.6350,-93.6417,2.0,253.3689826,22.39686808,-99999.0,'11111222,11111222,99999999' 
TABS,ioos:station:wmo:42051:1,2000-04-01T03:00:00Z,29.6350,-93.6417,2.0,251.8264604,20.07118581,-99999.0,'11111222,11111222,99999999' 
TABS,ioos:station:wmo:42051:1,2000-04-01T03:30:00Z,29.6350,-93.6417,2.0,252.2278659,16.11920904,-99999.0,'11111222,11111222,99999999' 
TABS,ioos:station:wmo:42051:1,2000-04-01T04:00:00Z,29.6350,-93.6417,2.0,248.1982206,24.07168669,-99999.0,'11111222,11111222,99999999' 
TABS,ioos:station:wmo:42051:1,2000-04-01T04:30:00Z,29.6350,-93.6417,2.0,243.0305175,18.38988037,-99999.0,'11111222,11111222,99999999' 
TABS,ioos:station:wmo:42051:1,2000-04-01T05:00:00Z,29.6350,-93.6417,2.0,254.6984508,16.37029322,-99999.0,'11111222,11111222,99999999' 
TABS,ioos:station:wmo:42051:1,2000-04-01T05:30:00Z,29.6350,-93.6417,2.0,256.5255133,18.54031553,-99999.0,'11111222,11111222,99999999' 
TABS,ioos:station:wmo:42051:1,2000-04-01T06:00:00Z,29.6350,-93.6417,2.0,243.8829816,25.71556921,-99999.0,'11111222,11111222,99999999' 
TABS,ioos:station:wmo:42051:1,2000-04-01T06:30:00Z,29.6350,-93.6417,2.0,239.242835,21.84220227,-99999.0,'11111222,11111222,99999999' 
TABS,ioos:station:wmo:42051:1,2000-04-01T07:00:00Z,29.6350,-93.6417,2.0,239.0233301,15.64067134,-99999.0,'11111222,11111222,99999999' 
TABS,ioos:station:wmo:42051:1,2000-04-01T07:30:00Z,29.6350,-93.6417,2.0,251.5585696,29.68430056,-99999.0,'11111222,11111222,99999999' 
TABS,ioos:station:wmo:42051:1,2000-04-01T08:00:00Z,29.6350,-93.6417,2.0,255.1977327,24.50313653,-99999.0,'11111222,11111222,99999999' 
TABS,ioos:station:wmo:42051:1,2000-04-01T08:30:00Z,29.6350,-93.6417,2.0,240.5305298,22.42077831,-99999.0,'11111222,11111222,99999999' 
TABS,ioos:station:wmo:42051:1,2000-04-01T10:00:00Z,29.6350,-93.6417,2.0,237.9870682,16.8645664,-99999.0,'11111222,11111222,99999999' 
TABS,ioos:station:wmo:42051:1,2000-04-01T11:00:00Z,29.6350,-93.6417,2.0,246.576505,15.74770142,-99999.0,'11111222,11111222,99999999' 
TABS,ioos:station:wmo:42051:1,2000-04-01T11:30:00Z,29.6350,-93.6417,2.0,257.0121951,11.92504927,-99999.0,'11111222,11111222,99999999' 
TABS,ioos:station:wmo:42051:1,2000-04-01T12:30:00Z,29.6350,-93.6417,2.0,244.3099871,21.66108261,-99999.0,'11111222,11111222,99999999' 
TABS,ioos:station:wmo:42051:1,2000-04-01T21:30:00Z,29.6350,-93.6417,2.0,250.8033143,28.55788858,-99999.0,'11111222,11111222,99999999' 
TABS,ioos:station:wmo:42051:1,2000-04-01T22:30:00Z,29.6350,-93.6417,2.0,256.4270165,26.67494142,-99999.0,'11111222,11111222,99999999' 
TABS,ioos:station:wmo:42051:1,2000-04-02T00:00:00Z,29.6350,-93.6417,2.0,252.8761032,12.15898022,-99999.0,'11111222,11111222,99999999' 
TABS,ioos:station:wmo:42051:1,2000-04-02T00:30:00Z,29.6350,-93.6417,2.0,246.4481908,16.41755463,-99999.0,'11111222,11111222,99999999' 
TABS,ioos:station:wmo:42051:1,2000-04-02T01:00:00Z,29.6350,-93.6417,2.0,260.4570417,15.26117296,-99999.0,'11111222,11111222,99999999' 
TABS,ioos:station:wmo:42051:1,2000-04-02T01:30:00Z,29.6350,-93.6417,2.0,261.063549,16.28769474,-99999.0,'11111222,11111222,99999999' 
TABS,ioos:station:wmo:42051:1,2000-04-02T02:00:00Z,29.6350,-93.6417,2.0,249.406517,19.90168083,-99999.0,'11111222,11111222,99999999' 
TABS,ioos:station:wmo:42051:1,2000-04-02T02:30:00Z,29.6350,-93.6417,2.0,264.3238754,19.6161668,-99999.0,'11111222,11111222,99999999' 
TABS,ioos:station:wmo:42051:1,2000-04-02T03:00:00Z,29.6350,-93.6417,2.0,264.6943236,25.74026612,-99999.0,'11111222,11111222,99999999' 
TABS,ioos:station:wmo:42051:1,2000-04-02T03:30:00Z,29.6350,-93.6417,2.0,261.8104965,21.97406198,-99999.0,'11111222,11111222,99999999' 
TABS,ioos:station:wmo:42051:1,2000-04-02T04:00:00Z,29.6350,-93.6417,2.0,263.0842668,21.01286511,-99999.0,'11111222,11111222,99999999' 
TABS,ioos:station:wmo:42051:1,2000-04-02T05:00:00Z,29.6350,-93.6417,2.0,264.025579,21.42636227,-99999.0,'11111222,11111222,99999999' 
TABS,ioos:station:wmo:42051:1,2000-04-02T05:30:00Z,29.6350,-93.6417,2.0,265.7003747,19.87592765,-99999.0,'11111222,11111222,99999999' 
TABS,ioos:station:wmo:42051:1,2000-04-02T06:00:00Z,29.6350,-93.6417,2.0,261.052112,24.88279124,-99999.0,'11111222,11111222,99999999' 
TABS,ioos:station:wmo:42051:1,2000-04-02T06:30:00Z,29.6350,-93.6417,2.0,267.3038832,28.49152857,-99999.0,'11111222,11111222,99999999' 
TABS,ioos:station:wmo:42051:1,2000-04-02T07:00:00Z,29.6350,-93.6417,2.0,265.1395075,24.66869474,-99999.0,'11111222,11111222,99999999' 
TABS,ioos:station:wmo:42051:1,2000-04-02T08:00:00Z,29.6350,-93.6417,2.0,261.0981915,22.16697769,-99999.0,'11111222,11111222,99999999' 
TABS,ioos:station:wmo:42051:1,2000-04-02T08:30:00Z,29.6350,-93.6417,2.0,258.9877747,22.61641881,-99999.0,'11111222,11111222,99999999' 
TABS,ioos:station:wmo:42051:1,2000-04-02T09:00:00Z,29.6350,-93.6417,2.0,252.2342382,20.02490949,-99999.0,'11111222,11111222,99999999' 
TABS,ioos:station:wmo:42051:1,2000-04-02T10:00:00Z,29.6350,-93.6417,2.0,253.4516381,13.06096474,-99999.0,'11111222,11111222,99999999' 
TABS,ioos:station:wmo:42051:1,2000-04-02T11:00:00Z,29.6350,-93.6417,2.0,263.103511,13.658814,-99999.0,'11111222,11111222,99999999' 
TABS,ioos:station:wmo:42051:1,2000-04-02T11:30:00Z,29.6350,-93.6417,2.0,261.94557,13.84657719,-99999.0,'11111222,11111222,99999999' 
TABS,ioos:station:wmo:42051:1,2000-04-02T12:00:00Z,29.6350,-93.6417,2.0,261.7336748,15.51113793,-99999.0,'11111222,11111222,99999999' 
TABS,ioos:station:wmo:42051:1,2000-04-02T12:30:00Z,29.6350,-93.6417,2.0,252.2288962,11.72967604,-99999.0,'11111222,11111222,99999999' 
TABS,ioos:station:wmo:42051:1,2000-04-02T13:30:00Z,29.6350,-93.6417,2.0,264.4372587,16.91966903,-99999.0,'11111222,11111222,99999999' 
TABS,ioos:station:wmo:42051:1,2000-04-02T14:00:00Z,29.6350,-93.6417,2.0,260.0446608,13.76728005,-99999.0,'11111222,11111222,99999999' 
TABS,ioos:station:wmo:42051:1,2000-04-02T14:30:00Z,29.6350,-93.6417,2.0,259.1257972,11.07892143,-99999.0,'11111222,11111222,99999999' 
TABS,ioos:station:wmo:42051:1,2000-04-02T15:00:00Z,29.6350,-93.6417,2.0,247.8227309,13.03423569,-99999.0,'11111222,11111222,99999999' 
TABS,ioos:station:wmo:42051:1,2000-04-02T15:30:00Z,29.6350,-93.6417,2.0,265.7960087,14.18816761,-99999.0,'11111222,11111222,99999999' 
TABS,ioos:station:wmo:42051:1,2000-04-02T16:00:00Z,29.6350,-93.6417,2.0,257.9978249,17.21632946,-99999.0,'11111222,11111222,99999999' 
TABS,ioos:station:wmo:42051:1,2000-04-02T16:30:00Z,29.6350,-93.6417,2.0,255.006517,14.959258,-99999.0,'11111222,11111222,99999999' 
TABS,ioos:station:wmo:42051:1,2000-04-02T17:00:00Z,29.6350,-93.6417,2.0,256.1157501,15.50293198,-99999.0,'11111222,11111222,99999999' 
TABS,ioos:station:wmo:42051:1,2000-04-02T17:30:00Z,29.6350,-93.6417,2.0,266.4339394,16.72237124,-99999.0,'11111222,11111222,99999999' 
TABS,ioos:station:wmo:42051:1,2000-04-02T18:00:00Z,29.6350,-93.6417,2.0,264.9842702,13.61211593,-99999.0,'11111222,11111222,99999999' 
TABS,ioos:station:wmo:42051:1,2000-04-02T18:30:00Z,29.6350,-93.6417,2.0,265.4092956,16.74370628,-99999.0,'11111222,11111222,99999999' 
TABS,ioos:station:wmo:42051:1,2000-04-02T19:30:00Z,29.6350,-93.6417,2.0,262.0119112,18.20664165,-99999.0,'11111222,11111222,99999999' 
TABS,ioos:station:wmo:42051:1,2000-04-02T20:00:00Z,29.6350,-93.6417,2.0,251.6889973,20.4030635,-99999.0,'11111222,11111222,99999999' 
TABS,ioos:station:wmo:42051:1,2000-04-02T21:00:00Z,29.6350,-93.6417,2.0,261.6320842,20.47798818,-99999.0,'11111222,11111222,99999999' 
TABS,ioos:station:wmo:42051:1,2000-04-02T21:30:00Z,29.6350,-93.6417,2.0,265.1642478,21.23557628,-99999.0,'11111222,11111222,99999999' 
TABS,ioos:station:wmo:42051:1,2000-04-02T22:00:00Z,29.6350,-93.6417,2.0,261.8101882,17.76111765,-99999.0,'11111222,11111222,99999999' 
TABS,ioos:station:wmo:42051:1,2000-04-02T22:30:00Z,29.6350,-93.6417,2.0,267.5056416,17.00610773,-99999.0,'11111222,11111222,99999999' 
TABS,ioos:station:wmo:42051:1,2000-04-02T23:00:00Z,29.6350,-93.6417,2.0,253.9789985,16.74014636,-99999.0,'11111222,11111222,99999999' 
TABS,ioos:station:wmo:42051:1,2000-04-02T23:30:00Z,29.6350,-93.6417,2.0,254.5128177,15.61702276,-99999.0,'11111222,11111222,99999999' 
TABS,ioos:station:wmo:42051:1,2000-04-03T00:00:00Z,29.6350,-93.6417,2.0,259.1974375,13.49920368,-99999.0,'11111222,11111222,99999999' 
TABS,ioos:station:wmo:42051:1,2000-04-03T00:30:00Z,29.6350,-93.6417,2.0,249.108586,18.81702686,-99999.0,'11111222,11111222,99999999' 
TABS,ioos:station:wmo:42051:1,2000-04-03T01:00:00Z,29.6350,-93.6417,2.0,247.735636,17.71034161,-99999.0,'11111222,11111222,99999999' 
TABS,ioos:station:wmo:42051:1,2000-04-03T01:30:00Z,29.6350,-93.6417,2.0,245.1876903,17.39580697,-99999.0,'11111222,11111222,99999999' 
TABS,ioos:station:wmo:42051:1,2000-04-03T02:00:00Z,29.6350,-93.6417,2.0,247.4972022,20.64158182,-99999.0,'11111222,11111222,99999999' 
TABS,ioos:station:wmo:42051:1,2000-04-03T02:30:00Z,29.6350,-93.6417,2.0,250.3191303,21.67621046,-99999.0,'11111222,11111222,99999999' 
TABS,ioos:station:wmo:42051:1,2000-04-03T03:00:00Z,29.6350,-93.6417,2.0,252.8293479,21.20507486,-99999.0,'11111222,11111222,99999999' 
TABS,ioos:station:wmo:42051:1,2000-04-03T04:30:00Z,29.6350,-93.6417,2.0,260.2403374,19.35002067,-99999.0,'11111222,11111222,99999999' 
TABS,ioos:station:wmo:42051:1,2000-04-03T05:00:00Z,29.6350,-93.6417,2.0,262.5824881,17.27454196,-99999.0,'11111222,11111222,99999999' 
TABS,ioos:station:wmo:42051:1,2000-04-03T05:30:00Z,29.6350,-93.6417,2.0,254.1846216,17.50252839,-99999.0,'11111222,11111222,99999999' 
TABS,ioos:station:wmo:42051:1,2000-04-03T06:00:00Z,29.6350,-93.6417,2.0,259.2099114,19.87130595,-99999.0,'11111222,11111222,99999999' 
TABS,ioos:station:wmo:42051:1,2000-04-03T06:30:00Z,29.6350,-93.6417,2.0,261.6506879,22.58939796,-99999.0,'11111222,11111222,99999999' 
TABS,ioos:station:wmo:42051:1,2000-04-03T07:00:00Z,29.6350,-93.6417,2.0,260.7925188,23.24953548,-99999.0,'11111222,11111222,99999999' 
TABS,ioos:station:wmo:42051:1,2000-04-03T08:30:00Z,29.6350,-93.6417,2.0,259.5185417,18.03084302,-99999.0,'11111222,11111222,99999999' 
TABS,ioos:station:wmo:42051:1,2000-04-03T09:00:00Z,29.6350,-93.6417,2.0,256.0915285,17.34861666,-99999.0,'11111222,11111222,99999999' 
TABS,ioos:station:wmo:42051:1,2000-04-03T09:30:00Z,29.6350,-93.6417,2.0,255.7152985,15.68492588,-99999.0,'11111222,11111222,99999999' 
TABS,ioos:station:wmo:42051:1,2000-04-03T10:00:00Z,29.6350,-93.6417,2.0,251.0303013,15.59703177,-99999.0,'11111222,11111222,99999999' 
TABS,ioos:station:wmo:42051:1,2000-04-03T10:30:00Z,29.6350,-93.6417,2.0,217.0150074,21.27806852,-99999.0,'11111222,11111222,99999999' 
TABS,ioos:station:wmo:42051:1,2000-04-03T11:30:00Z,29.6350,-93.6417,2.0,230.8195395,22.87259058,-99999.0,'11111222,11111222,99999999' 
TABS,ioos:station:wmo:42051:1,2000-04-03T12:30:00Z,29.6350,-93.6417,2.0,229.7238641,25.58519103,-99999.0,'11111222,11111222,99999999' 
TABS,ioos:station:wmo:42051:1,2000-04-03T13:00:00Z,29.6350,-93.6417,2.0,230.0165354,26.44102305,-99999.0,'11111222,11111222,99999999' 
TABS,ioos:station:wmo:42051:1,2000-04-03T13:30:00Z,29.6350,-93.6417,2.0,242.2111253,24.92442376,-99999.0,'11111222,11111222,99999999' 
TABS,ioos:station:wmo:42051:1,2000-04-03T14:00:00Z,29.6350,-93.6417,2.0,239.8269651,27.57617087,-99999.0,'11111222,11111222,99999999' 
TABS,ioos:station:wmo:42051:1,2000-04-03T14:30:00Z,29.6350,-93.6417,2.0,244.2142178,24.32172691,-99999.0,'11111222,11111222,99999999' 
TABS,ioos:station:wmo:42051:1,2000-04-03T15:00:00Z,29.6350,-93.6417,2.0,255.0163718,24.21321333,-99999.0,'11111222,11111222,99999999' 
TABS,ioos:station:wmo:42051:1,2000-04-03T15:30:00Z,29.6350,-93.6417,2.0,247.2940712,13.88616938,-99999.0,'11111222,11111222,99999999' 
TABS,ioos:station:wmo:42051:1,2000-04-03T16:00:00Z,29.6350,-93.6417,2.0,240.6021009,9.411928602,-99999.0,'11133222,11111222,99999999' 
TABS,ioos:station:wmo:42051:1,2000-04-03T16:30:00Z,29.6350,-93.6417,2.0,256.9046853,8.562663137,-99999.0,'11133222,11111222,99999999' 
TABS,ioos:station:wmo:42051:1,2000-04-03T17:00:00Z,29.6350,-93.6417,2.0,267.3379581,9.690454066,-99999.0,'11133222,11111222,99999999' 
TABS,ioos:station:wmo:42051:1,2000-04-03T17:30:00Z,29.6350,-93.6417,2.0,262.1575045,8.721565226,-99999.0,'11133222,11111222,99999999' 
TABS,ioos:station:wmo:42051:1,2000-04-03T18:30:00Z,29.6350,-93.6417,2.0,263.8338875,6.889854861,-99999.0,'11133222,11111222,99999999' 
TABS,ioos:station:wmo:42051:1,2000-04-03T19:00:00Z,29.6350,-93.6417,2.0,235.2497277,11.24569695,-99999.0,'11111222,11111222,99999999' 
TABS,ioos:station:wmo:42051:1,2000-04-03T19:30:00Z,29.6350,-93.6417,2.0,249.0291957,11.65175094,-99999.0,'11111222,11111222,99999999' 
TABS,ioos:station:wmo:42051:1,2000-04-03T20:00:00Z,29.6350,-93.6417,2.0,250.8238586,21.76777664,-99999.0,'11111222,11111222,99999999' 
TABS,ioos:station:wmo:42051:1,2000-04-03T20:30:00Z,29.6350,-93.6417,2.0,248.5305062,28.49728584,-99999.0,'11111222,11111222,99999999' 
TABS,ioos:station:wmo:42051:1,2000-04-03T21:00:00Z,29.6350,-93.6417,2.0,250.9238092,42.40879626,-99999.0,'11111222,11111222,99999999' 
TABS,ioos:station:wmo:42051:1,2000-04-03T21:30:00Z,29.6350,-93.6417,2.0,255.5002497,35.70726117,-99999.0,'11111222,11111222,99999999' 
TABS,ioos:station:wmo:42051:1,2000-04-03T22:00:00Z,29.6350,-93.6417,2.0,259.6611095,27.41509256,-99999.0,'11111222,11111222,99999999' 
TABS,ioos:station:wmo:42051:1,2000-04-03T22:30:00Z,29.6350,-93.6417,2.0,257.0505467,22.62537072,-99999.0,'11111222,11111222,99999999' 
TABS,ioos:station:wmo:42051:1,2000-04-04T00:00:00Z,29.6350,-93.6417,2.0,251.1636453,20.78299786,-99999.0,'11111222,11111222,99999999' 
TABS,ioos:station:wmo:42051:1,2000-04-04T00:30:00Z,29.6350,-93.6417,2.0,248.8569268,14.86032301,-99999.0,'11111222,11111222,99999999' 
TABS,ioos:station:wmo:42051:1,2000-04-04T01:00:00Z,29.6350,-93.6417,2.0,254.1398241,14.70995921,-99999.0,'11111222,11111222,99999999' 
TABS,ioos:station:wmo:42051:1,2000-04-04T01:30:00Z,29.6350,-93.6417,2.0,264.1123916,14.52661695,-99999.0,'11111222,11111222,99999999' 
TABS,ioos:station:wmo:42051:1,2000-04-04T02:00:00Z,29.6350,-93.6417,2.0,224.9996843,1.470782105,-99999.0,'11133222,11111222,99999999' 
TABS,ioos:station:wmo:42051:1,2000-04-04T03:00:00Z,29.6350,-93.6417,2.0,180.9944057,8.641301985,-99999.0,'11133222,11111222,99999999' 
TABS,ioos:station:wmo:42051:1,2000-04-04T03:30:00Z,29.6350,-93.6417,2.0,175.8881655,6.27615328,-99999.0,'11133222,11111222,99999999' 
TABS,ioos:station:wmo:42051:1,2000-04-04T04:00:00Z,29.6350,-93.6417,2.0,179.9997895,4.92,-99999.0,'11133222,11111222,99999999' 
TABS,ioos:station:wmo:42051:1,2000-04-04T04:30:00Z,29.6350,-93.6417,2.0,213.6158485,2.14946505,-99999.0,'11133222,11111222,99999999' 
TABS,ioos:station:wmo:42051:1,2000-04-04T05:00:00Z,29.6350,-93.6417,2.0,254.1267772,3.254074369,-99999.0,'11133222,11111222,99999999' 
TABS,ioos:station:wmo:42051:1,2000-04-04T06:00:00Z,29.6350,-93.6417,2.0,229.9361931,3.697742555,-99999.0,'11133222,11111222,99999999' 
TABS,ioos:station:wmo:42051:1,2000-04-04T06:30:00Z,29.6350,-93.6417,2.0,255.5555771,4.770796579,-99999.0,'11133222,11111222,99999999' 
TABS,ioos:station:wmo:42051:1,2000-04-04T07:00:00Z,29.6350,-93.6417,2.0,261.2090565,1.963058838,-99999.0,'11133222,11111222,99999999' 
TABS,ioos:station:wmo:42051:1,2000-04-04T07:30:00Z,29.6350,-93.6417,2.0,153.4348005,0.670820393,-99999.0,'11133222,11111222,99999999' 
TABS,ioos:station:wmo:42051:1,2000-04-04T08:30:00Z,29.6350,-93.6417,2.0,52.050339,6.049074309,-99999.0,'11133222,11111222,99999999' 
TABS,ioos:station:wmo:42051:1,2000-04-04T09:00:00Z,29.6350,-93.6417,2.0,60.34096012,9.942635466,-99999.0,'11133222,11111222,99999999' 
TABS,ioos:station:wmo:42051:1,2000-04-04T09:30:00Z,29.6350,-93.6417,2.0,71.79612386,10.97951729,-99999.0,'11111222,11111222,99999999' 
TABS,ioos:station:wmo:42051:1,2000-04-04T10:00:00Z,29.6350,-93.6417,2.0,82.6930137,11.71513978,-99999.0,'11111222,11111222,99999999' 
TABS,ioos:station:wmo:42051:1,2000-04-04T10:30:00Z,29.6350,-93.6417,2.0,77.66094158,11.13727076,-99999.0,'11111222,11111222,99999999' 
TABS,ioos:station:wmo:42051:1,2000-04-04T11:00:00Z,29.6350,-93.6417,2.0,77.93153468,10.66573017,-99999.0,'11111222,11111222,99999999' 
TABS,ioos:station:wmo:42051:1,2000-04-04T11:30:00Z,29.6350,-93.6417,2.0,74.47867937,11.1361259,-99999.0,'11111222,11111222,99999999' 
TABS,ioos:station:wmo:42051:1,2000-04-04T12:30:00Z,29.6350,-93.6417,2.0,77.32222345,10.84439025,-99999.0,'11111222,11111222,99999999' 
TABS,ioos:station:wmo:42051:1,2000-04-04T13:00:00Z,29.6350,-93.6417,2.0,70.62802403,11.21493647,-99999.0,'11111222,11111222,99999999' 
TABS,ioos:station:wmo:42051:1,2000-04-04T14:30:00Z,29.6350,-93.6417,2.0,69.57630602,16.21960542,-99999.0,'11111222,11111222,99999999' 
TABS,ioos:station:wmo:42051:1,2000-04-04T15:00:00Z,29.6350,-93.6417,2.0,71.37693192,15.40669984,-99999.0,'11111222,11111222,99999999' 
TABS,ioos:station:wmo:42051:1,2000-04-04T16:00:00Z,29.6350,-93.6417,2.0,62.5195792,16.79501414,-99999.0,'11111222,11111222,99999999' 
TABS,ioos:station:wmo:42051:1,2000-04-04T16:30:00Z,29.6350,-93.6417,2.0,62.41291101,14.79170714,-99999.0,'11111222,11111222,99999999' 
TABS,ioos:station:wmo:42051:1,2000-04-04T17:30:00Z,29.6350,-93.6417,2.0,61.01550738,9.534149149,-99999.0,'11133222,11111222,99999999' 
TABS,ioos:station:wmo:42051:1,2000-04-04T18:30:00Z,29.6350,-93.6417,2.0,65.23742597,6.398320092,-99999.0,'11133222,11111222,99999999' 
TABS,ioos:station:wmo:42051:1,2000-04-04T19:00:00Z,29.6350,-93.6417,2.0,73.80130931,3.728002146,-99999.0,'11133222,11111222,99999999' 
TABS,ioos:station:wmo:42051:1,2000-04-04T19:30:00Z,29.6350,-93.6417,2.0,76.54508224,3.82498366,-99999.0,'11133222,11111222,99999999' 
TABS,ioos:station:wmo:42051:1,2000-04-04T20:00:00Z,29.6350,-93.6417,2.0,72.76692454,4.523052067,-99999.0,'11133222,11111222,99999999' 
TABS,ioos:station:wmo:42051:1,2000-04-04T20:30:00Z,29.6350,-93.6417,2.0,79.09610051,4.704944208,-99999.0,'11133222,11111222,99999999' 
TABS,ioos:station:wmo:42051:1,2000-04-04T21:00:00Z,29.6350,-93.6417,2.0,90.0,5.07,-99999.0,'11133222,11111222,99999999' 
TABS,ioos:station:wmo:42051:1,2000-04-04T21:30:00Z,29.6350,-93.6417,2.0,107.5497477,5.936303564,-99999.0,'11133222,11111222,99999999' 
TABS,ioos:station:wmo:42051:1,2000-04-04T22:00:00Z,29.6350,-93.6417,2.0,109.9409719,6.978395231,-99999.0,'11133222,11111222,99999999' 
TABS,ioos:station:wmo:42051:1,2000-04-04T22:30:00Z,29.6350,-93.6417,2.0,122.313639,6.697163579,-99999.0,'11133222,11111222,99999999' 
TABS,ioos:station:wmo:42051:1,2000-04-04T23:00:00Z,29.6350,-93.6417,2.0,138.4346787,6.963368438,-99999.0,'11133222,11111222,99999999' 
TABS,ioos:station:wmo:42051:1,2000-04-04T23:30:00Z,29.6350,-93.6417,2.0,137.4507417,7.275713023,-99999.0,'11133222,11111222,99999999' 
TABS,ioos:station:wmo:42051:1,2000-04-05T00:00:00Z,29.6350,-93.6417,2.0,115.3998145,6.597764773,-99999.0,'11133222,11111222,99999999' 
TABS,ioos:station:wmo:42051:1,2000-04-05T00:30:00Z,29.6350,-93.6417,2.0,113.9425937,5.864639801,-99999.0,'11133222,11111222,99999999' 
TABS,ioos:station:wmo:42051:1,2000-04-05T01:30:00Z,29.6350,-93.6417,2.0,78.66896726,10.63733989,-99999.0,'11111222,11111222,99999999' 
TABS,ioos:station:wmo:42051:1,2000-04-05T02:00:00Z,29.6350,-93.6417,2.0,92.24671527,11.47882398,-99999.0,'11111222,11111222,99999999' 
TABS,ioos:station:wmo:42051:1,2000-04-05T03:00:00Z,29.6350,-93.6417,2.0,108.412286,8.010049937,-99999.0,'11133222,11111222,99999999' 
TABS,ioos:station:wmo:42051:1,2000-04-05T03:30:00Z,29.6350,-93.6417,2.0,106.8385107,6.697141181,-99999.0,'11133222,11111222,99999999' 
TABS,ioos:station:wmo:42051:1,2000-04-05T04:00:00Z,29.6350,-93.6417,2.0,100.1485382,5.902346991,-99999.0,'11133222,11111222,99999999' 
TABS,ioos:station:wmo:42051:1,2000-04-05T05:00:00Z,29.6350,-93.6417,2.0,61.48986873,5.928996542,-99999.0,'11133222,11111222,99999999' 
TABS,ioos:station:wmo:42051:1,2000-04-05T05:30:00Z,29.6350,-93.6417,2.0,17.71693098,7.820927055,-99999.0,'11133222,11111222,99999999' 
TABS,ioos:station:wmo:42051:1,2000-04-05T06:00:00Z,29.6350,-93.6417,2.0,9.075468048,7.544441663,-99999.0,'11133222,11111222,99999999' 
TABS,ioos:station:wmo:42051:1,2000-04-05T06:30:00Z,29.6350,-93.6417,2.0,35.94223828,9.387230689,-99999.0,'11133222,11111222,99999999' 
TABS,ioos:station:wmo:42051:1,2000-04-05T07:00:00Z,29.6350,-93.6417,2.0,15.49050733,7.263855725,-99999.0,'11133222,11111222,99999999' 
TABS,ioos:station:wmo:42051:1,2000-04-05T07:30:00Z,29.6350,-93.6417,2.0,358.2539329,4.922286054,-99999.0,'11133222,11111222,99999999' 
TABS,ioos:station:wmo:42051:1,2000-04-05T08:00:00Z,29.6350,-93.6417,2.0,287.8148204,4.380011416,-99999.0,'11133222,11111222,99999999' 
TABS,ioos:station:wmo:42051:1,2000-04-05T08:30:00Z,29.6350,-93.6417,2.0,311.7360396,5.588139225,-99999.0,'11133222,11111222,99999999' 
TABS,ioos:station:wmo:42051:1,2000-04-05T09:00:00Z,29.6350,-93.6417,2.0,299.5994425,6.336955105,-99999.0,'11133222,11111222,99999999' 
TABS,ioos:station:wmo:42051:1,2000-04-05T09:30:00Z,29.6350,-93.6417,2.0,277.6495295,5.559469399,-99999.0,'11133222,11111222,99999999' 
TABS,ioos:station:wmo:42051:1,2000-04-05T10:00:00Z,29.6350,-93.6417,2.0,280.9810453,5.45996337,-99999.0,'11133222,11111222,99999999' 
TABS,ioos:station:wmo:42051:1,2000-04-05T10:30:00Z,29.6350,-93.6417,2.0,274.1853273,8.221921916,-99999.0,'11133222,11111222,99999999' 
TABS,ioos:station:wmo:42051:1,2000-04-05T11:00:00Z,29.6350,-93.6417,2.0,277.7265895,6.620098187,-99999.0,'11133222,11111222,99999999' 
TABS,ioos:station:wmo:42051:1,2000-04-05T11:30:00Z,29.6350,-93.6417,2.0,279.9567945,5.147523676,-99999.0,'11133222,11111222,99999999' 
TABS,ioos:station:wmo:42051:1,2000-04-05T12:00:00Z,29.6350,-93.6417,2.0,290.337435,4.287248535,-99999.0,'11133222,11111222,99999999' 
TABS,ioos:station:wmo:42051:1,2000-04-05T12:30:00Z,29.6350,-93.6417,2.0,277.9075651,4.361467643,-99999.0,'11133222,11111222,99999999' 
TABS,ioos:station:wmo:42051:1,2000-04-05T13:00:00Z,29.6350,-93.6417,2.0,289.8101582,3.953985331,-99999.0,'11133222,11111222,99999999' 
TABS,ioos:station:wmo:42051:1,2000-04-05T13:30:00Z,29.6350,-93.6417,2.0,273.116889,5.518160926,-99999.0,'11133222,11111222,99999999' 
TABS,ioos:station:wmo:42051:1,2000-04-05T14:00:00Z,29.6350,-93.6417,2.0,274.1153204,4.18077744,-99999.0,'11133222,11111222,99999999' 
TABS,ioos:station:wmo:42051:1,2000-04-05T14:30:00Z,29.6350,-93.6417,2.0,288.3873001,3.772598574,-99999.0,'11133222,11111222,99999999' 
TABS,ioos:station:wmo:42051:1,2000-04-05T15:00:00Z,29.6350,-93.6417,2.0,315.0003157,4.42648845,-99999.0,'11133222,11111222,99999999' 
TABS,ioos:station:wmo:42051:1,2000-04-05T15:30:00Z,29.6350,-93.6417,2.0,323.8235541,4.794350842,-99999.0,'11133222,11111222,99999999' 
TABS,ioos:station:wmo:42051:1,2000-04-05T16:00:00Z,29.6350,-93.6417,2.0,326.7717771,5.164426396,-99999.0,'11133222,11111222,99999999' 
TABS,ioos:station:wmo:42051:1,2000-04-05T17:00:00Z,29.6350,-93.6417,2.0,327.6715191,8.639120326,-99999.0,'11133222,11111222,99999999' 
TABS,ioos:station:wmo:42051:1,2000-04-05T17:30:00Z,29.6350,-93.6417,2.0,347.9970654,10.04972636,-99999.0,'11111222,11111222,99999999' 
TABS,ioos:station:wmo:42051:1,2000-04-05T18:00:00Z,29.6350,-93.6417,2.0,353.9089795,8.387353575,-99999.0,'11133222,11111222,99999999' 
TABS,ioos:station:wmo:42051:1,2000-04-05T18:30:00Z,29.6350,-93.6417,2.0,350.6912983,9.211308268,-99999.0,'11133222,11111222,99999999' 